Location: Lane
(33.5226°N, 79.8788°W)
Time: 16:48:06
(UTC+00:00)

Transit 2A - Pass Details

Date: 02 October 2022
Orbit: 598 x 959 km, 66.7° (Epoch: 06 December)

Event Time Altitude Azimuth Distance (km) Brightness Sun altitude
Rises 13:12:58 0° 340° (NNW) 2,995 8.7 23.2°
Reaches altitude 10° 13:15:15 10° 346° (NNW) 2,125 8.0 23.6°
Maximum altitude 13:19:56 49° 62° (ENE) 933 7.3 24.5°
Drops below altitude 10° 13:25:06 10° 137° (SE) 2,340 9.9 25.5°
Sets 13:27:42 0° 142° (SE) 3,329 10.3 26.0°
